This is the latest recevied weather packets stored in our database for station/object W2JBO-5. If no packets are shown the sender has not sent any weather packets the latest 1 day(s).
| Time | Temp. | Humidity | Pressure | Rain* | Wind** | Luminosity | Snow |
|---|---|---|---|---|---|---|---|
| 1777987485 | 21.11° C | 86% | 1013 hPa | 0 mm | 0 m/s | 191 W/m² | - |
| 1777987184 | 20.56° C | 86% | 1013 hPa | 0 mm | 0.45 m/s, 236° | 199 W/m² | - |
| 1777986880 | 20.56° C | 86% | - | 0 mm | 0 m/s | - | - |
| 1777986578 | 20° C | 87% | 1012.1 hPa | 0 mm | 0 m/s | 170 W/m² | - |
| 1777986276 | 20° C | 88% | 1012.1 hPa | 0 mm | 0 m/s | 185 W/m² | - |
| 1777985973 | 18.89° C | 91% | 1012.1 hPa | 0 mm | 0 m/s | 157 W/m² | - |
| 1777985670 | 18.33° C | 94% | 1012.1 hPa | 0 mm | 0 m/s | 127 W/m² | - |
| 1777985366 | 17.78° C | 95% | 1012.1 hPa | 0 mm | 0.45 m/s, 226° | 119 W/m² | - |
| 1777985064 | 17.78° C | 98% | 1012.1 hPa | 0 mm | 0 m/s | 110 W/m² | - |
| 1777984760 | 16.67° C | 99% | 1012.1 hPa | 0 mm | 0 m/s | 110 W/m² | - |
| 1777984456 | 16.67° C | 99% | 1012.1 hPa | 0 mm | 0 m/s | 62 W/m² | - |
| 1777984152 | 16.11° C | 99% | 1012.1 hPa | 0 mm | 0 m/s | 42 W/m² | - |
| 1777983850 | 16.11° C | 99% | 1012.1 hPa | 0 mm | 0 m/s | 44 W/m² | - |
| 1777983546 | 15.56° C | 99% | 1012.1 hPa | 0 mm | 0 m/s | 39 W/m² | - |
| 1777983243 | 15° C | 99% | 1012.1 hPa | 0 mm | 0 m/s | 35 W/m² | - |
| 1777982939 | 15° C | 99% | 1012.1 hPa | 0 mm | 0 m/s | 33 W/m² | - |
| 1777982636 | 15° C | 99% | 1011.9 hPa | 0 mm | 0 m/s | 31 W/m² | - |
| 1777982334 | 14.44° C | 99% | 1011.9 hPa | 0 mm | 0 m/s | 24 W/m² | - |
| 1777982032 | 14.44° C | 99% | 1011.9 hPa | 0 mm | 0 m/s | 19 W/m² | - |
| 1777981729 | 14.44° C | 99% | 1011.9 hPa | 0 mm | 0 m/s | 13 W/m² | - |
| 1777981426 | 14.44° C | 99% | 1011.9 hPa | 0 mm | 0 m/s | 11 W/m² | - |
| 1777981122 | 14.44° C | 99% | 1011.9 hPa | 0 mm | 0 m/s | 9 W/m² | - |
| 1777980819 | 13.89° C | 99% | 1011.9 hPa | 0 mm | 0 m/s | 6 W/m² | - |
| 1777980514 | 13.89° C | 99% | 1011.9 hPa | 0 mm | 0 m/s | 3 W/m² | - |
| 1777980212 | 13.89° C | 99% | 1011.9 hPa | 0 mm | 0 m/s | 1 W/m² | - |
* Rain latest hour (hover to see other rain measurements)
** Current wind speed in m/s (hover to see current wind gust speed)